This is the latest recevied weather packets stored in our database for station/object OH5GWF-1. If no packets are shown the sender has not sent any weather packets the latest 10 day(s).
| Time | Temp. | Humidity | Pressure | Rain* | Wind** | Luminosity | Snow |
|---|---|---|---|---|---|---|---|
| 1777792429 | 12.78° C | 66% | 1006 hPa | 0 mm | - | - | - |
| 1777792020 | 12.22° C | 66% | 1005.8 hPa | 0 mm | - | - | - |
| 1777791768 | 11.67° C | 65% | 1005.7 hPa | 0 mm | - | - | - |
| 1777791599 | 12.22° C | 65% | 1005.7 hPa | 0 mm | - | - | - |
| 1777791178 | 12.78° C | 64% | 1005.8 hPa | 0 mm | - | - | - |
| 1777791110 | 12.78° C | 64% | 1005.8 hPa | 0 mm | - | - | - |
| 1777790757 | 13.33° C | 63% | 1005.7 hPa | 0 mm | - | - | - |
| 1777790445 | 13.33° C | 64% | 1005.8 hPa | 0 mm | - | - | - |
| 1777790336 | 13.33° C | 65% | 1005.8 hPa | 0 mm | - | - | - |
| 1777789914 | 12.78° C | 66% | 1005.7 hPa | 0 mm | - | - | - |
| 1777789782 | 12.22° C | 67% | 1005.7 hPa | 0 mm | - | - | - |
| 1777789492 | 12.22° C | 68% | 1005.6 hPa | 0 mm | - | - | - |
| 1777789285 | 11.67° C | 68% | 1005.5 hPa | 0 mm | - | - | - |
| 1777789071 | 11.67° C | 68% | 1005.5 hPa | 0 mm | - | - | - |
| 1777788649 | 11.11° C | 69% | 1005.4 hPa | 0 mm | - | - | - |
| 1777788468 | 11.11° C | 69% | 1005.3 hPa | 0 mm | - | - | - |
| 1777788238 | 11.67° C | 69% | 1005.3 hPa | 0 mm | - | - | - |
| 1777787806 | 11.11° C | 72% | 1005.3 hPa | 0 mm | - | - | - |
| 1777787393 | 10.56° C | 74% | 1005.4 hPa | 0 mm | - | - | - |
| 1777786970 | 9.44° C | 76% | 1005.3 hPa | 0 mm | - | - | - |
| 1777786560 | 8.89° C | 76% | 1005.4 hPa | 0 mm | - | - | - |
| 1777786138 | 8.89° C | 77% | 1005.4 hPa | 0 mm | - | - | - |
| 1777785715 | 8.89° C | 77% | 1005.2 hPa | 0 mm | - | - | - |
| 1777785293 | 8.89° C | 78% | 1005.1 hPa | 0 mm | - | - | - |
| 1777784869 | 8.33° C | 79% | 1005 hPa | 0 mm | - | - | - |
* Rain latest hour (hover to see other rain measurements)
** Current wind speed in m/s (hover to see current wind gust speed)